DW6885 Weather Reports


Display with metric or nautical units.
time (UTC)temp
F
wind
direction
speed
MPH
gust
MPH
rain 1hr
in
rain 24hr
in
rain mn
in
humidity
%
barometer
mb
20180118080116 14 183 0.0 0.0 0.00 0.01 0.00 93 1015.8
20180118074443 15 216 0.0 2.0 0.00 0.01 0.00 94 1016.0
20180118072838 15 173 0.0 2.0 0.00 0.01 0.00 93 1016.1
20180118071120 15 173 0.0 0.0 0.00 0.01 0.00 94 1016.1
20180118065527 16 78 0.0 0.0 0.00 0.01 0.00 94 1015.8
20180118063808 17 78 0.0 3.0 0.00 0.01 0.00 94 1016.0
20180118062136 17 169 0.0 0.0 0.00 0.01 0.00 94 1016.2
20180118060510 18 49 0.0 1.0 0.00 0.01 0.00 94 1016.5
20180118054809 18 49 0.0 2.0 0.00 0.01 0.00 94 1016.7
20180118053213 19 60 0.0 2.0 0.00 0.01 0.00 94 1017.1
20180118051526 19 350 0.0 0.0 0.00 0.01 0.00 93 1017.6
20180118045924 21 350 0.0 0.0 0.00 0.01 0.01 93 1017.5
20180118044310 21 350 0.0 2.0 0.00 0.01 0.01 93 1017.6
20180118042520 22 88 0.0 2.0 0.00 0.01 0.01 93 1017.9
20180118040908 22 272 0.0 2.0 0.00 0.01 0.01 93 1017.9
20180118035135 23 288 0.0 2.0 0.00 0.01 0.01 93 1018.1
20180118033529 23 56 0.0 3.0 0.00 0.01 0.01 93 1017.9
20180118031923 24 349 0.0 5.0 0.00 0.01 0.01 93 1018.2
20180118030141 25 170 0.0 5.0 0.00 0.01 0.01 94 1018.3
20180118024528 26 15 1.0 4.0 0.00 0.01 0.01 94 1018.5
20180118022910 26 29 0.0 4.0 0.00 0.01 0.01 95 1018.3
20180118021231 26 15 1.0 4.0 0.00 0.01 0.01 96 1018.1
20180118015527 26 182 0.0 2.0 0.00 0.01 0.01 96 1018.1
20180118013817 26 35 0.0 3.0 0.00 0.01 0.01 96 1018.2
20180118012140 27 57 0.0 4.0 0.00 0.01 0.01 96 1018.4
20180118010512 27 314 0.0 3.0 0.00 0.01 0.01 96 1018.5
20180118004914 27 51 0.0 5.0 0.00 0.01 0.01 97 1018.5
20180118003211 27 305 0.0 2.0 0.00 0.01 0.01 97 1018.5
20180118001538 27 305 0.0 0.0 0.00 0.01 0.01 96 1018.7
20180117235908 27 305 0.0 0.0 0.00 0.01 0.01 96 1018.7
20180117234231 27 305 0.0 0.0 0.00 0.01 0.01 96 1018.8
20180117232629 27 305 0.0 0.0 0.00 0.01 0.01 96 1018.8
20180117230909 28 305 0.0 0.0 0.00 0.01 0.01 96 1018.9
20180117225311 28 305 0.0 2.0 0.00 0.01 0.01 96 1019.2
20180117223527 28 305 0.0 0.0 0.00 0.01 0.01 96 1019.3
20180117221923 28 305 0.0 0.0 0.00 0.01 0.01 96 1019.3
20180117220308 28 305 0.0 0.0 0.00 0.01 0.01 96 1019.2
20180117214617 28 305 0.0 0.0 0.01 0.01 0.01 96 1019.3
20180117213010 29 305 0.0 0.0 0.01 0.01 0.01 95 1019.6
20180117211333 29 305 0.0 0.0 0.01 0.01 0.01 95 1019.7
20180117205625 29 305 0.0 0.0 0.01 0.01 0.01 95 1019.8
20180117204019 29 305 0.0 0.0 0.00 0.00 0.00 95 1019.7
20180117202410 29 305 0.0 0.0 0.00 0.00 0.00 95 1019.8
20180117200810 29 305 0.0 0.0 0.00 0.00 0.00 95 1019.9
20180117195026 29 305 0.0 3.0 0.00 0.00 0.00 95 1020.3
20180117193313 29 305 0.0 2.0 0.00 0.00 0.00 95 1020.5
20180117191708 29 101 0.0 1.0 0.00 0.00 0.00 95 1020.5
20180117190027 29 101 0.0 1.0 0.00 0.00 0.00 95 1020.5
20180117184424 29 315 0.0 1.0 0.00 0.00 0.00 95 1020.7
20180117182726 29 315 0.0 1.0 0.00 0.00 0.00 95 1020.7
20180117181108 29 284 0.0 3.0 0.00 0.00 0.00 94 1021.1
20180117175424 29 26 0.0 2.0 0.00 0.00 0.00 95 1021.3
20180117173820 29 280 0.0 1.0 0.00 0.00 0.00 95 1021.5
20180117172036 29 280 0.0 2.0 0.00 0.00 0.00 95 1022.0
20180117170410 29 280 0.0 0.0 0.00 0.00 0.00 95 1022.2
20180117164816 29 280 0.0 0.0 0.00 0.00 0.00 95 1022.7
20180117163141 29 280 0.0 1.0 0.00 0.00 0.00 95 1023.1
20180117161433 29 280 0.0 1.0 0.00 0.00 0.00 95 1023.5
20180117155723 29 279 0.0 1.0 0.00 0.00 0.00 95 1023.8
20180117154123 28 279 0.0 0.0 0.00 0.00 0.00 96 1024.2
20180117152515 28 279 0.0 1.0 0.00 0.00 0.00 95 1024.4
20180117150911 28 279 0.0 1.0 0.00 0.00 0.00 96 1024.6
20180117145215 27 254 0.0 2.0 0.00 0.00 0.00 96 1024.9
20180117143542 27 229 0.0 0.0 0.00 0.00 0.00 96 1025.0
20180117141827 27 229 0.0 0.0 0.00 0.00 0.00 96 1025.1
20180117140208 27 229 0.0 0.0 0.00 0.00 0.00 97 1025.2
20180117134609 27 229 0.0 0.0 0.00 0.00 0.00 97 1025.2
20180117133008 28 229 0.0 0.0 0.00 0.00 0.00 97 1025.2
20180117131229 27 229 0.0 0.0 0.00 0.00 0.00 97 1025.1
20180117125622 27 229 0.0 0.0 0.00 0.00 0.00 97 1025.7
20180117123909 27 229 0.0 0.0 0.00 0.00 0.00 97 1025.7
20180117122240 27 229 0.0 0.0 0.00 0.00 0.00 97 1025.7
20180117120611 27 229 0.0 0.0 0.00 0.00 0.00 97 1026.0
20180117114926 27 229 0.0 0.0 0.00 0.00 0.00 97 1026.0
20180117113323 27 229 0.0 0.0 0.00 0.00 0.00 97 1026.0
20180117111713 27 229 0.0 0.0 0.00 0.00 0.00 97 1026.6
20180117110026 27 229 0.0 0.0 0.00 0.00 0.00 97 1026.6
20180117104327 27 229 0.0 0.0 0.00 0.00 0.00 97 1026.3
20180117102728 27 229 0.0 0.0 0.00 0.00 0.00 97 1026.4
20180117101011 27 229 0.0 0.0 0.00 0.00 0.00 97 1026.7
20180117095415 27 229 0.0 0.0 0.00 0.00 0.00 97 1026.7
20180117093809 27 229 0.0 0.0 0.00 0.00 0.00 97 1026.6
20180117092025 27 229 0.0 1.0 0.00 0.00 0.00 97 1026.9
20180117090511 28 229 0.0 1.0 0.00 0.00 0.00 97 1027.1
20180117084717 28 223 0.0 2.0 0.00 0.00 0.00 97 1027.1
20180117083119 28 238 0.0 1.0 0.00 0.00 0.00 97 1027.2
20180117081508 28 238 0.0 1.0 0.00 0.00 0.00 97 1027.4